Simultaneous Nadir Overpasses (SNOs) Predictions

Prediction of SNOs between GOES-16 and METOP-B Satellite Orbit:

Table of predicted SNOs for the next 14.0 days since TLE Epoch: 9/12/2025
Index Date Time (GOES-16) GOES-16 Lat,Lon METOP-B Lat,Lon Distance(km) Time Diff (sec)
1 09/13/2025 15:42:02 0.05,-104.69 -0.86,-100.70 454.93 80
2 09/15/2025 04:03:45 -0.07,-104.63 -0.20,-105.32 78.49 80
3 09/16/2025 03:40:28 -0.06,-104.62 0.90,-100.34 488.38 80
4 09/17/2025 16:02:02 0.07,-104.68 0.12,-104.92 28.20 80
5 09/20/2025 03:57:48 -0.07,-104.62 -0.07,-104.56 6.44 80
6 09/22/2025 15:56:05 0.08,-104.68 -0.01,-104.17 58.04 80
7 09/24/2025 04:17:48 -0.09,-104.63 -1.03,-108.79 473.95 80
8 09/25/2025 03:54:30 -0.08,-104.63 0.09,-103.81 93.50 80
9 09/26/2025 16:16:05 0.10,-104.69 0.94,-108.40 422.74 80
